Year,Month,Day,Hour,Minute,Value (Times are PST for temperature in C)
2006,07,19,00,00,10.50
2006,07,19,00,01,10.60
2006,07,19,00,02,10.60
2006,07,19,00,03,10.60
2006,07,19,00,04,10.60
2006,07,19,00,05,10.60
2006,07,19,00,06,10.60
2006,07,19,00,07,10.60
2006,07,19,00,08,10.60
2006,07,19,00,09,10.60
2006,07,19,00,10,10.60
2006,07,19,00,11,10.50
2006,07,19,00,12,10.40
2006,07,19,00,13,10.40
2006,07,19,00,14,10.40
2006,07,19,00,15,10.40
2006,07,19,00,16,10.40
2006,07,19,00,17,10.30
2006,07,19,00,18,10.30
2006,07,19,00,19,10.30
2006,07,19,00,20,10.30
2006,07,19,00,21,10.30
2006,07,19,00,22,10.30
2006,07,19,00,23,10.30
2006,07,19,00,24,10.30
2006,07,19,00,25,10.30
2006,07,19,00,26,10.30
2006,07,19,00,27,10.20
2006,07,19,00,28,10.20
2006,07,19,00,29,10.20
2006,07,19,00,30,10.20
2006,07,19,00,31,10.20
2006,07,19,00,32,10.20
2006,07,19,00,33,10.10
2006,07,19,00,34,10.10
2006,07,19,00,35,10.10
2006,07,19,00,36,10.10
2006,07,19,00,37,10.10
2006,07,19,00,38,10.10
2006,07,19,00,39,10.10
2006,07,19,00,40,10.10
2006,07,19,00,41,10.10
2006,07,19,00,42,10.10
2006,07,19,00,43,10.10
2006,07,19,00,44,10.10
2006,07,19,00,45,10.10
2006,07,19,00,46,10.10
2006,07,19,00,47,9.90
2006,07,19,00,48,9.90
2006,07,19,00,49,9.90
2006,07,19,00,50,9.90
2006,07,19,00,51,9.90
2006,07,19,00,52,9.90
2006,07,19,00,53,9.80
2006,07,19,00,54,9.80
2006,07,19,00,55,9.80
2006,07,19,00,56,9.80
2006,07,19,00,57,9.80
2006,07,19,00,58,9.80
2006,07,19,00,59,9.80
2006,07,19,01,00,9.80
2006,07,19,01,01,9.70
2006,07,19,01,02,9.70
2006,07,19,01,03,9.70
2006,07,19,01,04,9.70
2006,07,19,01,05,9.70
2006,07,19,01,06,9.70
2006,07,19,01,07,9.70
2006,07,19,01,08,9.70
2006,07,19,01,09,9.70
2006,07,19,01,10,9.70
2006,07,19,01,11,9.70
2006,07,19,01,12,9.70
2006,07,19,01,13,9.70
2006,07,19,01,14,9.70
2006,07,19,01,15,9.70
2006,07,19,01,16,9.70
2006,07,19,01,17,9.70
2006,07,19,01,18,9.70
2006,07,19,01,19,9.70
2006,07,19,01,20,9.70
2006,07,19,01,21,9.60
2006,07,19,01,22,9.60
2006,07,19,01,23,9.60
2006,07,19,01,24,9.60
2006,07,19,01,25,9.50
2006,07,19,01,26,9.50
2006,07,19,01,27,9.50
2006,07,19,01,28,9.50
2006,07,19,01,29,9.50
2006,07,19,01,30,9.40
2006,07,19,01,31,9.40
2006,07,19,01,32,9.40
2006,07,19,01,33,9.30
2006,07,19,01,34,9.30
2006,07,19,01,35,9.30
2006,07,19,01,36,9.30
2006,07,19,01,37,9.20
2006,07,19,01,38,9.20
2006,07,19,01,39,9.20
2006,07,19,01,40,9.20
2006,07,19,01,41,9.20
2006,07,19,01,42,9.20
2006,07,19,01,43,9.20
2006,07,19,01,44,9.20
2006,07,19,01,45,9.20
2006,07,19,01,46,9.20
2006,07,19,01,47,9.10
2006,07,19,01,48,9.10
2006,07,19,01,49,9.10
2006,07,19,01,50,9.10
2006,07,19,01,51,9.20
2006,07,19,01,52,9.10
2006,07,19,01,53,9.10
2006,07,19,01,54,9.10
2006,07,19,01,55,9.10
2006,07,19,01,56,9.10
2006,07,19,01,57,9.10
2006,07,19,01,58,9.10
2006,07,19,01,59,9.10
2006,07,19,02,00,9.00
2006,07,19,02,01,9.00
2006,07,19,02,02,9.00
2006,07,19,02,03,9.10
2006,07,19,02,04,9.10
2006,07,19,02,05,9.10
2006,07,19,02,06,9.10
2006,07,19,02,07,9.10
2006,07,19,02,08,9.20
2006,07,19,02,09,9.20
2006,07,19,02,10,9.20
2006,07,19,02,11,9.20
2006,07,19,02,12,9.20
2006,07,19,02,13,9.10
2006,07,19,02,14,9.10
2006,07,19,02,15,9.10
2006,07,19,02,16,9.10
2006,07,19,02,17,9.10
2006,07,19,02,18,9.10
2006,07,19,02,19,9.10
2006,07,19,02,20,9.10
2006,07,19,02,21,9.10
2006,07,19,02,22,9.10
2006,07,19,02,23,9.10
2006,07,19,02,24,9.10
2006,07,19,02,25,9.10
2006,07,19,02,26,9.10
2006,07,19,02,27,9.00
2006,07,19,02,28,9.00
2006,07,19,02,29,9.00
2006,07,19,02,30,9.00
2006,07,19,02,31,9.00
2006,07,19,02,32,9.00
2006,07,19,02,33,8.90
2006,07,19,02,34,8.90
2006,07,19,02,35,8.90
2006,07,19,02,36,8.90
2006,07,19,02,37,9.00
2006,07,19,02,38,9.00
2006,07,19,02,39,9.00
2006,07,19,02,40,9.00
2006,07,19,02,41,9.00
2006,07,19,02,42,9.00
2006,07,19,02,43,9.00
2006,07,19,02,44,9.00
2006,07,19,02,45,9.00
2006,07,19,02,46,9.00
2006,07,19,02,47,8.90
2006,07,19,02,48,8.90
2006,07,19,02,49,8.90
2006,07,19,02,50,8.90
2006,07,19,02,51,8.90
2006,07,19,02,52,8.90
2006,07,19,02,53,8.80
2006,07,19,02,54,8.80
2006,07,19,02,55,8.80
2006,07,19,02,56,8.90
2006,07,19,02,57,8.90
2006,07,19,02,58,8.90
2006,07,19,02,59,9.00
2006,07,19,03,00,9.00
2006,07,19,03,01,8.90
2006,07,19,03,02,8.90
2006,07,19,03,03,8.90
2006,07,19,03,04,8.90
2006,07,19,03,05,8.90
2006,07,19,03,06,8.80
2006,07,19,03,07,8.80
2006,07,19,03,08,8.80
2006,07,19,03,09,8.80
2006,07,19,03,10,8.70
2006,07,19,03,11,8.70
2006,07,19,03,12,8.70
2006,07,19,03,13,8.70
2006,07,19,03,14,8.80
2006,07,19,03,15,8.80
2006,07,19,03,16,8.70
2006,07,19,03,17,8.70
2006,07,19,03,18,8.70
2006,07,19,03,19,8.70
2006,07,19,03,20,8.70
2006,07,19,03,21,8.70
2006,07,19,03,22,8.60
2006,07,19,03,23,8.60
2006,07,19,03,24,8.60
2006,07,19,03,25,8.60
2006,07,19,03,26,8.60
2006,07,19,03,27,8.50
2006,07,19,03,28,8.50
2006,07,19,03,29,8.50
2006,07,19,03,30,8.50
2006,07,19,03,31,8.50
2006,07,19,03,32,8.50
2006,07,19,03,33,8.60
2006,07,19,03,34,8.60
2006,07,19,03,35,8.60
2006,07,19,03,36,8.50
2006,07,19,03,37,8.50
2006,07,19,03,38,8.50
2006,07,19,03,39,8.50
2006,07,19,03,40,8.50
2006,07,19,03,41,8.50
2006,07,19,03,42,8.50
2006,07,19,03,43,8.50
2006,07,19,03,44,8.50
2006,07,19,03,45,8.50
2006,07,19,03,46,8.40
2006,07,19,03,47,8.40
2006,07,19,03,48,8.40
2006,07,19,03,49,8.40
2006,07,19,03,50,8.40
2006,07,19,03,51,8.40
2006,07,19,03,52,8.30
2006,07,19,03,53,8.30
2006,07,19,03,54,8.30
2006,07,19,03,55,8.20
2006,07,19,03,56,8.20
2006,07,19,03,57,8.20
2006,07,19,03,58,8.20
2006,07,19,03,59,8.20
2006,07,19,04,00,8.20
2006,07,19,04,01,8.20
2006,07,19,04,02,8.20
2006,07,19,04,03,8.20
2006,07,19,04,04,8.20
2006,07,19,04,05,8.20
2006,07,19,04,06,8.20
2006,07,19,04,07,8.10
2006,07,19,04,08,8.10
2006,07,19,04,09,8.10
2006,07,19,04,10,8.10
2006,07,19,04,11,8.00
2006,07,19,04,12,8.00
2006,07,19,04,13,8.00
2006,07,19,04,14,8.00
2006,07,19,04,15,8.00
2006,07,19,04,16,8.10
2006,07,19,04,17,8.10
2006,07,19,04,18,8.10
2006,07,19,04,19,8.10
2006,07,19,04,20,8.00
2006,07,19,04,21,8.00
2006,07,19,04,22,8.00
2006,07,19,04,23,7.90
2006,07,19,04,24,7.90
2006,07,19,04,25,7.90
2006,07,19,04,26,7.80
2006,07,19,04,27,7.80
2006,07,19,04,28,7.80
2006,07,19,04,29,7.80
2006,07,19,04,30,7.80
2006,07,19,04,31,7.80
2006,07,19,04,32,7.80
2006,07,19,04,33,7.80
2006,07,19,04,34,7.80
2006,07,19,04,35,7.70
2006,07,19,04,36,7.70
2006,07,19,04,37,7.70
2006,07,19,04,38,7.70
2006,07,19,04,39,7.80
2006,07,19,04,40,7.80
2006,07,19,04,41,7.80
2006,07,19,04,42,7.70
2006,07,19,04,43,7.70
2006,07,19,04,44,7.70
2006,07,19,04,45,7.70
2006,07,19,04,46,7.70
2006,07,19,04,47,7.70
2006,07,19,04,48,7.70
2006,07,19,04,49,7.70
2006,07,19,04,50,7.70
2006,07,19,04,51,7.70
2006,07,19,04,52,7.70
2006,07,19,04,53,7.60
2006,07,19,04,54,7.60
2006,07,19,04,55,7.60
2006,07,19,04,56,7.60
2006,07,19,04,57,7.60
2006,07,19,04,58,7.60
2006,07,19,04,59,7.70
2006,07,19,05,00,7.70
2006,07,19,05,01,7.70
2006,07,19,05,02,7.70
2006,07,19,05,03,7.70
2006,07,19,05,04,7.60
2006,07,19,05,05,7.60
2006,07,19,05,06,7.60
2006,07,19,05,07,7.60
2006,07,19,05,08,7.60
2006,07,19,05,09,7.60
2006,07,19,05,10,7.60
2006,07,19,05,11,7.60
2006,07,19,05,12,7.60
2006,07,19,05,13,7.60
2006,07,19,05,14,7.60
2006,07,19,05,15,7.60
2006,07,19,05,16,7.60
2006,07,19,05,17,7.50
2006,07,19,05,18,7.50
2006,07,19,05,19,7.50
2006,07,19,05,20,7.50
2006,07,19,05,21,7.50
2006,07,19,05,22,7.50
2006,07,19,05,23,7.50
2006,07,19,05,24,7.50
2006,07,19,05,25,7.60
2006,07,19,05,26,7.60
2006,07,19,05,27,7.60
2006,07,19,05,28,7.60
2006,07,19,05,29,7.50
2006,07,19,05,30,7.50
2006,07,19,05,31,7.50
2006,07,19,05,32,7.50
2006,07,19,05,33,7.50
2006,07,19,05,34,7.40
2006,07,19,05,35,7.40
2006,07,19,05,36,7.40
2006,07,19,05,37,7.40
2006,07,19,05,38,7.40
2006,07,19,05,39,7.30
2006,07,19,05,40,7.30
2006,07,19,05,41,7.30
2006,07,19,05,42,7.30
2006,07,19,05,43,7.30
2006,07,19,05,44,7.30
2006,07,19,05,45,7.40
2006,07,19,05,46,7.40
2006,07,19,05,47,7.40
2006,07,19,05,48,7.50
2006,07,19,05,49,7.50
2006,07,19,05,50,7.50
2006,07,19,05,51,7.50
2006,07,19,05,52,7.50
2006,07,19,05,53,7.50
2006,07,19,05,54,7.50
2006,07,19,05,55,7.50
2006,07,19,05,56,7.40
2006,07,19,05,57,7.40
2006,07,19,05,58,7.40
2006,07,19,05,59,7.40
2006,07,19,06,00,7.40
2006,07,19,06,01,7.40
2006,07,19,06,02,7.40
2006,07,19,06,03,7.40
2006,07,19,06,04,7.40
2006,07,19,06,05,7.40
2006,07,19,06,06,7.50
2006,07,19,06,07,7.50
2006,07,19,06,08,7.50
2006,07,19,06,09,7.50
2006,07,19,06,10,7.60
2006,07,19,06,11,7.60
2006,07,19,06,12,7.60
2006,07,19,06,13,7.60
2006,07,19,06,14,7.60
2006,07,19,06,15,7.60
2006,07,19,06,16,7.60
2006,07,19,06,17,7.60
2006,07,19,06,18,7.70
2006,07,19,06,19,7.70
2006,07,19,06,20,7.70
2006,07,19,06,21,7.70
2006,07,19,06,22,7.70
2006,07,19,06,23,7.70
2006,07,19,06,24,7.80
2006,07,19,06,25,7.80
2006,07,19,06,26,7.80
2006,07,19,06,27,7.80
2006,07,19,06,28,7.80
2006,07,19,06,29,7.90
2006,07,19,06,30,7.90
2006,07,19,06,31,7.90
2006,07,19,06,32,8.00
2006,07,19,06,33,8.00
2006,07,19,06,34,8.00
2006,07,19,06,35,8.10
2006,07,19,06,36,8.10
2006,07,19,06,37,8.10
2006,07,19,06,38,8.20
2006,07,19,06,39,8.20
2006,07,19,06,40,8.20
2006,07,19,06,41,8.20
2006,07,19,06,42,8.20
2006,07,19,06,43,8.30
2006,07,19,06,44,8.30
2006,07,19,06,45,8.30
2006,07,19,06,46,8.40
2006,07,19,06,47,8.40
2006,07,19,06,48,8.50
2006,07,19,06,49,8.50
2006,07,19,06,50,8.50
2006,07,19,06,51,8.50
2006,07,19,06,52,8.60
2006,07,19,06,53,8.60
2006,07,19,06,54,8.60
2006,07,19,06,55,8.70
2006,07,19,06,56,8.70
2006,07,19,06,57,8.70
2006,07,19,06,58,8.70
2006,07,19,06,59,8.70
2006,07,19,07,00,8.70
2006,07,19,07,01,8.70
2006,07,19,07,02,8.70
2006,07,19,07,03,8.80
2006,07,19,07,04,8.80
2006,07,19,07,05,8.80
2006,07,19,07,06,8.80
2006,07,19,07,07,8.90
2006,07,19,07,08,8.90
2006,07,19,07,09,8.90
2006,07,19,07,10,8.90
2006,07,19,07,11,8.90
2006,07,19,07,12,9.00
2006,07,19,07,13,9.00
2006,07,19,07,14,9.00
2006,07,19,07,15,9.00
2006,07,19,07,16,9.10
2006,07,19,07,17,9.10
2006,07,19,07,18,9.10
2006,07,19,07,19,9.20
2006,07,19,07,20,9.20
2006,07,19,07,21,9.20
2006,07,19,07,22,9.20
2006,07,19,07,23,9.30
2006,07,19,07,24,9.40
2006,07,19,07,25,9.50
2006,07,19,07,26,9.50
2006,07,19,07,27,9.60
2006,07,19,07,28,9.70
2006,07,19,07,29,9.80
2006,07,19,07,30,9.90
2006,07,19,07,31,9.90
2006,07,19,07,32,10.10
2006,07,19,07,33,10.10
2006,07,19,07,34,10.20
2006,07,19,07,35,10.30
2006,07,19,07,36,10.50
2006,07,19,07,37,10.60
2006,07,19,07,38,10.70
2006,07,19,07,39,10.80
2006,07,19,07,40,10.80
2006,07,19,07,41,10.80
2006,07,19,07,42,10.90
2006,07,19,07,43,10.90
2006,07,19,07,44,11.00
2006,07,19,07,45,11.10
2006,07,19,07,46,11.20
2006,07,19,07,47,11.30
2006,07,19,07,48,11.40
2006,07,19,07,49,11.40
2006,07,19,07,50,11.40
2006,07,19,07,51,11.40
2006,07,19,07,52,11.60
2006,07,19,07,53,11.60
2006,07,19,07,54,11.60
2006,07,19,07,55,11.60
2006,07,19,07,56,11.60
2006,07,19,07,57,11.60
2006,07,19,07,58,11.60
2006,07,19,07,59,11.60
2006,07,19,08,00,11.60
2006,07,19,08,01,11.60
2006,07,19,08,02,11.70
2006,07,19,08,03,11.70
2006,07,19,08,04,11.70
2006,07,19,08,05,11.70
2006,07,19,08,06,11.80
2006,07,19,08,07,11.80
2006,07,19,08,08,11.80
2006,07,19,08,09,11.90
2006,07,19,08,10,12.10
2006,07,19,08,11,12.20
2006,07,19,08,12,12.30
2006,07,19,08,13,12.40
2006,07,19,08,14,12.40
2006,07,19,08,15,12.40
2006,07,19,08,16,12.50
2006,07,19,08,17,12.60
2006,07,19,08,18,12.70
2006,07,19,08,19,12.80
2006,07,19,08,20,12.80
2006,07,19,08,21,12.90
2006,07,19,08,22,12.90
2006,07,19,08,23,12.90
2006,07,19,08,24,12.90
2006,07,19,08,25,12.80
2006,07,19,08,26,12.80
2006,07,19,08,27,12.80
2006,07,19,08,28,12.80
2006,07,19,08,29,12.80
2006,07,19,08,30,12.90
2006,07,19,08,31,12.90
2006,07,19,08,32,12.90
2006,07,19,08,33,12.80
2006,07,19,08,34,12.80
2006,07,19,08,35,12.80
2006,07,19,08,36,12.80
2006,07,19,08,37,12.70
2006,07,19,08,38,12.70
2006,07,19,08,39,12.70
2006,07,19,08,40,12.60
2006,07,19,08,41,12.60
2006,07,19,08,42,12.50
2006,07,19,08,43,12.50
2006,07,19,08,44,12.50
2006,07,19,08,45,12.50
2006,07,19,08,46,12.50
2006,07,19,08,47,12.60
2006,07,19,08,48,12.60
2006,07,19,08,49,12.50
2006,07,19,08,50,12.50
2006,07,19,08,51,12.50
2006,07,19,08,52,12.40
2006,07,19,08,53,12.40
2006,07,19,08,54,12.30
2006,07,19,08,55,12.30
2006,07,19,08,56,12.30
2006,07,19,08,57,12.30
2006,07,19,08,58,12.30
2006,07,19,08,59,12.30
2006,07,19,09,00,12.30
2006,07,19,09,01,12.30
2006,07,19,09,02,12.40
2006,07,19,09,03,12.40
2006,07,19,09,04,12.40
2006,07,19,09,05,12.50
2006,07,19,09,06,12.50
2006,07,19,09,07,12.50
2006,07,19,09,08,12.40
2006,07,19,09,09,12.30
2006,07,19,09,10,12.30
2006,07,19,09,11,12.30
2006,07,19,09,12,12.30
2006,07,19,09,13,12.30
2006,07,19,09,14,12.40
2006,07,19,09,15,12.50
2006,07,19,09,16,12.60
2006,07,19,09,17,12.70
2006,07,19,09,18,12.80
2006,07,19,09,19,12.90
2006,07,19,09,20,12.90
2006,07,19,09,21,12.90
2006,07,19,09,22,12.90
2006,07,19,09,23,12.90
2006,07,19,09,24,13.00
2006,07,19,09,25,13.20
2006,07,19,09,26,13.30
2006,07,19,09,27,13.30
2006,07,19,09,28,13.10
2006,07,19,09,29,13.10
2006,07,19,09,30,13.00
2006,07,19,09,31,13.00
2006,07,19,09,32,13.00
2006,07,19,09,33,13.00
2006,07,19,09,34,12.90
2006,07,19,09,35,12.80
2006,07,19,09,36,12.70
2006,07,19,09,37,12.60
2006,07,19,09,38,12.60
2006,07,19,09,39,12.60
2006,07,19,09,40,12.70
2006,07,19,09,41,12.70
2006,07,19,09,42,12.70
2006,07,19,09,43,12.60
2006,07,19,09,44,12.60
2006,07,19,09,45,12.60
2006,07,19,09,46,12.60
2006,07,19,09,47,12.60
2006,07,19,09,48,12.50
2006,07,19,09,49,12.50
2006,07,19,09,50,12.50
2006,07,19,09,51,12.60
2006,07,19,09,52,12.70
2006,07,19,09,53,12.80
2006,07,19,09,54,12.80
2006,07,19,09,55,12.70
2006,07,19,09,56,12.70
2006,07,19,09,57,12.60
2006,07,19,09,58,12.50
2006,07,19,09,59,12.60
2006,07,19,10,00,12.60
2006,07,19,10,01,12.70
2006,07,19,10,02,12.70
2006,07,19,10,03,12.60
2006,07,19,10,04,12.60
2006,07,19,10,05,12.50
2006,07,19,10,06,12.50
2006,07,19,10,07,12.40
2006,07,19,10,08,12.40
2006,07,19,10,09,12.30
2006,07,19,10,10,12.30
2006,07,19,10,11,12.40
2006,07,19,10,12,12.40
2006,07,19,10,13,12.50
2006,07,19,10,14,12.50
2006,07,19,10,15,12.50
2006,07,19,10,16,12.60
2006,07,19,10,17,12.60
2006,07,19,10,18,12.70
2006,07,19,10,19,12.80
2006,07,19,10,20,12.90
2006,07,19,10,21,13.00
2006,07,19,10,22,13.00
2006,07,19,10,23,13.00
2006,07,19,10,24,13.00
2006,07,19,10,25,13.00
2006,07,19,10,26,13.00
2006,07,19,10,27,13.00
2006,07,19,10,28,13.10
2006,07,19,10,29,13.20
2006,07,19,10,30,13.30
2006,07,19,10,31,13.30
2006,07,19,10,32,13.30
2006,07,19,10,33,13.20
2006,07,19,10,34,13.10
2006,07,19,10,35,13.00
2006,07,19,10,36,13.00
2006,07,19,10,37,13.00
2006,07,19,10,38,13.00
2006,07,19,10,39,13.00
2006,07,19,10,40,13.00
2006,07,19,10,41,13.00
2006,07,19,10,42,13.00
2006,07,19,10,43,13.10
2006,07,19,10,44,13.10
2006,07,19,10,45,13.10
2006,07,19,10,46,13.10
2006,07,19,10,47,13.20
2006,07,19,10,48,13.20
2006,07,19,10,49,13.30
2006,07,19,10,50,13.30
2006,07,19,10,51,13.30
2006,07,19,10,52,13.40
2006,07,19,10,53,13.50
2006,07,19,10,54,13.50
2006,07,19,10,55,13.60
2006,07,19,10,56,13.70
2006,07,19,10,57,13.80
2006,07,19,10,58,13.90
2006,07,19,10,59,14.00
2006,07,19,11,00,14.10
2006,07,19,11,01,14.20
2006,07,19,11,02,14.30
2006,07,19,11,03,14.40
2006,07,19,11,04,14.60
2006,07,19,11,05,14.70
2006,07,19,11,06,14.70
2006,07,19,11,07,14.80
2006,07,19,11,08,14.80
2006,07,19,11,09,14.80
2006,07,19,11,10,14.80
2006,07,19,11,11,14.80
2006,07,19,11,12,14.70
2006,07,19,11,13,14.60
2006,07,19,11,14,14.60
2006,07,19,11,15,14.50
2006,07,19,11,16,14.40
2006,07,19,11,17,14.20
2006,07,19,11,18,14.10
2006,07,19,11,19,14.10
2006,07,19,11,20,14.00
2006,07,19,11,21,13.90
2006,07,19,11,22,13.90
2006,07,19,11,23,13.80
2006,07,19,11,24,13.70
2006,07,19,11,25,13.80
2006,07,19,11,26,13.90
2006,07,19,11,27,13.90
2006,07,19,11,28,14.00
2006,07,19,11,29,14.10
2006,07,19,11,30,14.20
2006,07,19,11,31,14.30
2006,07,19,11,32,14.40
2006,07,19,11,33,14.50
2006,07,19,11,34,14.50
2006,07,19,11,35,14.60
2006,07,19,11,36,14.50
2006,07,19,11,37,14.40
2006,07,19,11,38,14.20
2006,07,19,11,39,14.10
2006,07,19,11,40,14.10
2006,07,19,11,41,14.00
2006,07,19,11,42,13.90
2006,07,19,11,43,13.80
2006,07,19,11,44,13.70
2006,07,19,11,45,13.70
2006,07,19,11,46,13.70
2006,07,19,11,47,13.70
2006,07,19,11,48,13.70
2006,07,19,11,49,13.70
2006,07,19,11,50,13.70
2006,07,19,11,51,13.60
2006,07,19,11,52,13.60
2006,07,19,11,53,13.60
2006,07,19,11,54,13.60
2006,07,19,11,55,13.60
2006,07,19,11,56,13.50
2006,07,19,11,57,13.40
2006,07,19,11,58,13.40
2006,07,19,11,59,13.40
2006,07,19,12,00,13.40
2006,07,19,12,01,13.40
2006,07,19,12,02,13.30
2006,07,19,12,03,13.30
2006,07,19,12,04,13.30
2006,07,19,12,05,13.30
2006,07,19,12,06,13.20
2006,07,19,12,07,13.20
2006,07,19,12,08,13.10
2006,07,19,12,09,13.10
2006,07,19,12,10,13.20
2006,07,19,12,11,13.10
2006,07,19,12,12,13.10
2006,07,19,12,13,13.10
2006,07,19,12,14,13.20
2006,07,19,12,15,13.20
2006,07,19,12,16,13.30
2006,07,19,12,17,13.30
2006,07,19,12,18,13.30
2006,07,19,12,19,13.30
2006,07,19,12,20,13.30
2006,07,19,12,21,13.30
2006,07,19,12,22,13.30
2006,07,19,12,23,13.30
2006,07,19,12,24,13.40
2006,07,19,12,25,13.50
2006,07,19,12,26,13.60
2006,07,19,12,27,13.70
2006,07,19,12,28,13.80
2006,07,19,12,29,13.90
2006,07,19,12,30,14.10
2006,07,19,12,31,14.20
2006,07,19,12,32,14.30
2006,07,19,12,33,14.20
2006,07,19,12,34,14.20
2006,07,19,12,35,14.20
2006,07,19,12,36,14.10
2006,07,19,12,37,14.00
2006,07,19,12,38,14.00
2006,07,19,12,39,14.10
2006,07,19,12,40,14.10
2006,07,19,12,41,14.00
2006,07,19,12,42,13.90
2006,07,19,12,43,13.90
2006,07,19,12,44,13.80
2006,07,19,12,45,13.80
2006,07,19,12,46,13.80
2006,07,19,12,47,13.70
2006,07,19,12,48,13.70
2006,07,19,12,49,13.80
2006,07,19,12,50,13.90
2006,07,19,12,51,14.00
2006,07,19,12,52,14.10
2006,07,19,12,53,14.10
2006,07,19,12,54,13.90
2006,07,19,12,55,13.80
2006,07,19,12,56,13.70
2006,07,19,12,57,13.60
2006,07,19,12,58,13.50
2006,07,19,12,59,13.50
2006,07,19,13,00,13.50
2006,07,19,13,01,13.50
2006,07,19,13,02,13.50
2006,07,19,13,03,13.40
2006,07,19,13,04,13.30
2006,07,19,13,05,13.30
2006,07,19,13,06,13.20
2006,07,19,13,07,13.20
2006,07,19,13,08,13.20
2006,07,19,13,09,13.30
2006,07,19,13,10,13.30
2006,07,19,13,11,13.30
2006,07,19,13,12,13.30
2006,07,19,13,13,13.30
2006,07,19,13,14,13.20
2006,07,19,13,15,13.10
2006,07,19,13,16,13.00
2006,07,19,13,17,12.90
2006,07,19,13,18,12.90
2006,07,19,13,19,12.90
2006,07,19,13,20,12.80
2006,07,19,13,21,12.80
2006,07,19,13,22,12.90
2006,07,19,13,23,13.00
2006,07,19,13,24,13.10
2006,07,19,13,25,13.20
2006,07,19,13,26,13.30
2006,07,19,13,27,13.40
2006,07,19,13,28,13.50
2006,07,19,13,29,13.60
2006,07,19,13,30,13.50
2006,07,19,13,31,13.30
2006,07,19,13,32,13.30
2006,07,19,13,33,13.30
2006,07,19,13,34,13.20
2006,07,19,13,35,13.10
2006,07,19,13,36,13.20
2006,07,19,13,37,13.20
2006,07,19,13,38,13.40
2006,07,19,13,39,13.50
2006,07,19,13,40,13.60
2006,07,19,13,41,13.60
2006,07,19,13,42,13.60
2006,07,19,13,43,13.60
2006,07,19,13,44,13.40
2006,07,19,13,45,13.30
2006,07,19,13,46,13.30
2006,07,19,13,47,13.20
2006,07,19,13,48,13.20
2006,07,19,13,49,13.20
2006,07,19,13,50,13.20
2006,07,19,13,51,13.30
2006,07,19,13,52,13.30
2006,07,19,13,53,13.40
2006,07,19,13,54,13.40
2006,07,19,13,55,13.50
2006,07,19,13,56,13.50
2006,07,19,13,57,13.60
2006,07,19,13,58,13.70
2006,07,19,13,59,13.70
2006,07,19,14,00,13.70
2006,07,19,14,01,13.50
2006,07,19,14,02,13.30
2006,07,19,14,03,13.10
2006,07,19,14,04,13.10
2006,07,19,14,05,13.20
2006,07,19,14,06,13.30
2006,07,19,14,07,13.40
2006,07,19,14,08,13.40
2006,07,19,14,09,13.30
2006,07,19,14,10,13.30
2006,07,19,14,11,13.30
2006,07,19,14,12,13.30
2006,07,19,14,13,13.30
2006,07,19,14,14,13.30
2006,07,19,14,15,13.30
2006,07,19,14,16,13.50
2006,07,19,14,17,13.60
2006,07,19,14,18,13.60
2006,07,19,14,19,13.60
2006,07,19,14,20,13.60
2006,07,19,14,21,13.70
2006,07,19,14,22,13.60
2006,07,19,14,23,13.60
2006,07,19,14,24,13.50
2006,07,19,14,25,13.40
2006,07,19,14,26,13.40
2006,07,19,14,27,13.50
2006,07,19,14,28,13.50
2006,07,19,14,29,13.50
2006,07,19,14,30,13.50
2006,07,19,14,31,13.60
2006,07,19,14,32,13.70
2006,07,19,14,33,13.80
2006,07,19,14,34,13.90
2006,07,19,14,35,14.10
2006,07,19,14,36,14.20
2006,07,19,14,37,14.30
2006,07,19,14,38,14.40
2006,07,19,14,39,14.50
2006,07,19,14,40,14.50
2006,07,19,14,41,14.50
2006,07,19,14,42,14.40
2006,07,19,14,43,14.30
2006,07,19,14,44,14.30
2006,07,19,14,45,14.30
2006,07,19,14,46,14.30
2006,07,19,14,47,14.40
2006,07,19,14,48,14.40
2006,07,19,14,49,14.50
2006,07,19,14,50,14.40
2006,07,19,14,51,14.40
2006,07,19,14,52,14.50
2006,07,19,14,53,14.60
2006,07,19,14,54,14.90
2006,07,19,14,55,15.10
2006,07,19,14,56,15.20
2006,07,19,14,57,15.30
2006,07,19,14,58,15.50
2006,07,19,14,59,15.60
2006,07,19,15,00,15.80
2006,07,19,15,01,16.00
2006,07,19,15,02,16.10
2006,07,19,15,03,15.90
2006,07,19,15,04,15.80
2006,07,19,15,05,15.80
2006,07,19,15,06,15.80
2006,07,19,15,07,15.90
2006,07,19,15,08,15.80
2006,07,19,15,09,15.80
2006,07,19,15,10,15.80
2006,07,19,15,11,15.90
2006,07,19,15,12,15.90
2006,07,19,15,13,15.90
2006,07,19,15,14,15.90
2006,07,19,15,15,16.00
2006,07,19,15,16,16.10
2006,07,19,15,17,16.10
2006,07,19,15,18,16.00
2006,07,19,15,19,15.90
2006,07,19,15,20,15.80
2006,07,19,15,21,15.80
2006,07,19,15,22,15.80
2006,07,19,15,23,15.90
2006,07,19,15,24,16.00
2006,07,19,15,25,16.10
2006,07,19,15,26,16.30
2006,07,19,15,27,16.40
2006,07,19,15,28,16.40
2006,07,19,15,29,16.30
2006,07,19,15,30,16.30
2006,07,19,15,31,16.40
2006,07,19,15,32,16.30
2006,07,19,15,33,16.30
2006,07,19,15,34,16.30
2006,07,19,15,35,16.40
2006,07,19,15,36,16.50
2006,07,19,15,37,16.50
2006,07,19,15,38,16.60
2006,07,19,15,39,16.60
2006,07,19,15,40,16.60
2006,07,19,15,41,16.70
2006,07,19,15,42,16.70
2006,07,19,15,43,16.80
2006,07,19,15,44,16.80
2006,07,19,15,45,16.70
2006,07,19,15,46,16.80
2006,07,19,15,47,16.90
2006,07,19,15,48,16.90
2006,07,19,15,49,16.90
2006,07,19,15,50,17.00
2006,07,19,15,51,17.00
2006,07,19,15,52,17.00
2006,07,19,15,53,17.10
2006,07,19,15,54,17.20
2006,07,19,15,55,17.30
2006,07,19,15,56,17.50
2006,07,19,15,57,17.70
2006,07,19,15,58,17.90
2006,07,19,15,59,17.90
2006,07,19,16,00,17.90
2006,07,19,16,01,17.90
2006,07,19,16,02,17.80
2006,07,19,16,03,17.70
2006,07,19,16,04,17.70
2006,07,19,16,05,17.70
2006,07,19,16,06,17.70
2006,07,19,16,07,17.80
2006,07,19,16,08,17.90
2006,07,19,16,09,17.90
2006,07,19,16,10,17.60
2006,07,19,16,11,17.30
2006,07,19,16,12,17.10
2006,07,19,16,13,16.90
2006,07,19,16,14,17.00
2006,07,19,16,15,17.10
2006,07,19,16,16,17.10
2006,07,19,16,17,17.10
2006,07,19,16,18,17.10
2006,07,19,16,19,17.30
2006,07,19,16,20,17.30
2006,07,19,16,21,17.10
2006,07,19,16,22,16.90
2006,07,19,16,23,16.70
2006,07,19,16,24,16.70
2006,07,19,16,25,16.70
2006,07,19,16,26,16.70
2006,07,19,16,27,16.70
2006,07,19,16,28,16.70
2006,07,19,16,29,16.70
2006,07,19,16,30,16.70
2006,07,19,16,31,16.60
2006,07,19,16,32,16.60
2006,07,19,16,33,16.70
2006,07,19,16,34,16.80
2006,07,19,16,35,16.90
2006,07,19,16,36,16.90
2006,07,19,16,37,16.90
2006,07,19,16,38,16.90
2006,07,19,16,39,16.80
2006,07,19,16,40,16.80
2006,07,19,16,41,16.80
2006,07,19,16,42,16.80
2006,07,19,16,43,16.70
2006,07,19,16,44,16.70
2006,07,19,16,45,16.70
2006,07,19,16,46,16.70
2006,07,19,16,47,16.60
2006,07,19,16,48,16.60
2006,07,19,16,49,16.70
2006,07,19,16,50,17.00
2006,07,19,16,51,17.20
2006,07,19,16,52,17.40
2006,07,19,16,53,17.60
2006,07,19,16,54,17.60
2006,07,19,16,55,17.30
2006,07,19,16,56,17.00
2006,07,19,16,57,16.90
2006,07,19,16,58,16.70
2006,07,19,16,59,16.70
2006,07,19,17,00,16.70
2006,07,19,17,01,16.50
2006,07,19,17,02,16.30
2006,07,19,17,03,16.00
2006,07,19,17,04,15.80
2006,07,19,17,05,15.50
2006,07,19,17,06,15.40
2006,07,19,17,07,15.20
2006,07,19,17,08,15.20
2006,07,19,17,09,15.20
2006,07,19,17,10,15.20
2006,07,19,17,11,15.20
2006,07,19,17,12,15.20
2006,07,19,17,13,15.20
2006,07,19,17,14,15.10
2006,07,19,17,15,15.10
2006,07,19,17,16,15.10
2006,07,19,17,17,15.00
2006,07,19,17,18,15.10
2006,07,19,17,19,15.20
2006,07,19,17,20,15.40
2006,07,19,17,21,15.60
2006,07,19,17,22,15.60
2006,07,19,17,23,15.70
2006,07,19,17,24,15.80
2006,07,19,17,25,15.80
2006,07,19,17,26,15.70
2006,07,19,17,27,15.40
2006,07,19,17,28,15.10
2006,07,19,17,29,14.90
2006,07,19,17,30,14.80
2006,07,19,17,31,14.70
2006,07,19,17,32,14.70
2006,07,19,17,33,14.70
2006,07,19,17,34,14.70
2006,07,19,17,35,14.80
2006,07,19,17,36,14.90
2006,07,19,17,37,14.80